Home > Weather > Perth > Past weeks

Flag for United Kingdom Past Weather in Perth, Scotland, United Kingdom — Yesterday and Last 2 Weeks

Now
52 °F

Fog.


Feels Like: 52 °F
Forecast: 47 / 58 °F
Wind: 3 mph from Southwest

Location: Strathallan

Current Time: Jul 27, 2016 at 2:14:27 AM

Latest Report: Jul 27, 2016 at 1:00 AM


Visibility: 4 mi

Pressure: 29.88 "Hg

Humidity: 99%

Dew Point: 52 °F

Location of PerthLocation

Past Weather in Perth — Graph

°F

Perth Temperature Yesterday

Maximum temperature yesterday: 62 °F (at 12:00 PM)
Minimum temperature yesterday: 53 °F (at 5:00 AM)
Average temperature yesterday: 57 °F

High & Low Weather Summary for the Past Weeks

 TemperatureHumidityPressure
High80 °F (Jul 19, 4:00 PM)100% (Jul 14, 6:00 AM)30.22 "Hg (Jul 14, 6:00 AM)
Low44 °F (Jul 13, 5:00 AM)51% (Jul 14, 3:00 PM)29.71 "Hg (Jul 20, 1:00 PM)
Average60 °F82%29.99 "Hg
* Reported Jul 12 12:00 AM — Jul 27 12:00 AM, Perth, Weather by CustomWeather, © 2016

Note: Actual official high and low records may vary slightly from our data, if they occured in-between our weather recording intervals... More about our weather records

Advertising

Perth Weather History for the Previous 24 Hours

Scroll right to see more
 ConditionsComfort  
Time TempWeatherWind HumidityBarometerVisibility
12:00 AM
Wed, Jul 27
53 °FCool.2 mph95%29.90 "Hg15 mi
11:00 PM
Tue, Jul 26
54 °FCool.2 mph96%29.91 "Hg25 mi
10:00 PM54 °FCool.1 mph95%29.93 "Hg28 mi
9:00 PM55 °FLight rain. Cloudy.5 mph94%29.93 "Hg19 mi
8:00 PM55 °FRain. Cloudy.6 mph92%29.94 "Hg19 mi
7:00 PM56 °FRain. Cloudy.8 mph91%29.95 "Hg12 mi
6:00 PM58 °FLight rain. Cloudy.7 mph84%29.96 "Hg22 mi
5:00 PM60 °FRain showers. Cloudy.10 mph72%29.96 "Hg28 mi
4:00 PM60 °FCool.7 mph73%29.98 "Hg6 mi
3:00 PM61 °FCool.12 mph68%29.98 "Hg25 mi
2:00 PM60 °FCool.10 mph73%30.00 "Hg25 mi
1:00 PM60 °FCool.14 mph75%30.01 "Hg25 mi
12:00 PM62 °FCool.14 mph74%30.01 "Hg22 mi
11:00 AM58 °FCool.10 mph81%30.02 "Hg9 mi
10:00 AM58 °FCool.13 mph83%30.02 "Hg31 mi
9:00 AM57 °FCool.13 mph84%30.03 "Hg11 mi
8:00 AM56 °FCool.8 mph88%30.02 "Hg31 mi
7:00 AM55 °FCool.6 mph91%30.02 "Hg31 mi
6:00 AM54 °FCool.9 mph92%30.01 "Hg31 mi
5:00 AM53 °FCool.6 mph95%30.01 "Hg31 mi
4:00 AM54 °FCool.6 mph93%30.01 "Hg28 mi
3:00 AM53 °FCool.7 mph94%30.01 "Hg28 mi
2:00 AM54 °FCool.8 mph92%30.01 "Hg31 mi
Weather by CustomWeather, © 2016

See weather overviewHow to use our weather pages